Alaskan Explorer — WDB9918 — position and weather

sailwx.info

Track history (hours):
 
Tides and Currents Weather Stations Pressure Air Temp Water Temp Dewpoint Dewpoint Depression Visibility Wind Speed Wind Dir Waves Ship Positions

Alaskan Explorer

Owner: ALASKA TANKER COMPANY, LLC, Beaverton, OR. More information available from US FCC via Universal Licensing System and Coast Guard Vessel Documentation Center.

Last reported at 2017-Dec-10 21:00 UTC. Time now 2017-Dec-11 07:52 UTC.
Position N 55°24' W 142°12'.

Type: Tanker. MMSI: 303294000.

Wind from 140 at 52 knots

Barometer 992.9 mb
Air temperature 6.7 ° C
Visibility: greater than 2.2 NM
Dewpoint 4.4 ° C
Water temperature 8.9 ° C

Date/timePositionNaut miles runAvg speedWind from/ knotsBaromVisibWave heightAir tempDewpointWater temp
2017-Dec-10 21:00N 55°24' W 142°12'4113.8 140 / 52992.9 2.2 6.7 4.4 8.9
2017-Dec-10 18:00N 54°48' W 141°36'34214.3 140 / 37997.5 6.7 4.4 8.9
2017-Dec-09 18:00N 51°18' W 134°06'10613.2 180 / 241006.5 2.2 10.0 7.911.1
2017-Dec-09 10:00N 50°24' W 131°42'11114.9 140 / 371011.3 5.4 11.1 5.511.1
2017-Dec-09 02:31N 49°25' W 129°15'514.6
2017-Dec-09 02:12N 49°23' W 129°09'314.8
2017-Dec-09 02:00N 49°21' W 129°06'714.4
2017-Dec-09 01:30N 49°17' W 128°56'714.3
2017-Dec-09 01:00N 49°13' W 128°47'714.6
2017-Dec-09 00:31N 49°10' W 128°37'714.6
2017-Dec-09 00:00N 49°06' W 128°28'814.8
2017-Dec-08 23:29N 49°02' W 128°18'715.0
2017-Dec-08 23:00N 48°58' W 128°09'815.1
2017-Dec-08 22:30N 48°54' W 127°59'815.1
2017-Dec-08 22:00N 48°50' W 127°49'815.1
2017-Dec-08 21:30N 48°46' W 127°39'815.0
2017-Dec-08 21:00N 48°42' W 127°30'815.1
2017-Dec-08 20:30N 48°38' W 127°20'715.0
2017-Dec-08 20:00N 48°34' W 127°10'714.3
2017-Dec-08 19:30N 48°31' W 127°01'714.8
2017-Dec-08 19:00N 48°31' W 126°49'815.1
2017-Dec-08 18:30N 48°31' W 126°38'714.9
2017-Dec-08 18:00N 48°31' W 126°27'714.6
2017-Dec-08 17:31N 48°31' W 126°16'714.9
2017-Dec-08 17:00N 48°31' W 126°05'815.1
2017-Dec-08 16:30N 48°32' W 125°53'714.9
2017-Dec-08 16:00N 48°32' W 125°42'714.9
2017-Dec-08 15:30N 48°31' W 125°31'714.9
2017-Dec-08 15:00N 48°31' W 125°20'815.0
2017-Dec-08 14:30N 48°31' W 125°08'815.3
2017-Dec-08 14:00N 48°30' W 124°57'815.0
2017-Dec-08 13:30N 48°31' W 124°45'714.3
2017-Dec-08 13:00N 48°28' W 124°35'714.4
2017-Dec-08 12:30N 48°25' W 124°25'714.4
2017-Dec-08 12:00N 48°23' W 124°15'714.5
2017-Dec-08 11:30N 48°20' W 124°05'815.0
2017-Dec-08 11:00N 48°17' W 123°54'815.4
2017-Dec-08 10:30N 48°16' W 123°43'815.8
2017-Dec-08 10:00N 48°15' W 123°31'713.1
2017-Dec-08 09:30N 48°10' W 123°25'3 5.9
2017-Dec-08 09:00N 48°10' W 123°20'816.5
2017-Dec-08 08:30N 48°15' W 123°11'816.4
2017-Dec-08 08:00N 48°20' W 123°00'816.1
2017-Dec-08 07:30N 48°24' W 122°50'816.5
2017-Dec-08 07:00N 48°31' W 122°45'917.4
2017-Dec-08 06:30N 48°40' W 122°43'816.1
2017-Dec-08 06:00N 48°48' W 122°46'4 7.6
2017-Dec-08 05:30N 48°52' W 122°45'0 0.0
2017-Dec-08 05:00N 48°52' W 122°45'0 0.0
2017-Dec-08 04:30N 48°52' W 122°45'0 0.0
2017-Dec-07 03:36N 48°52' W 122°45'0 0.1
2017-Dec-07 03:30N 48°52' W 122°45'0 0.9
2017-Dec-07 03:00N 48°51' W 122°45'3 4.7
2017-Dec-07 02:26N 48°49' W 122°45'4 9.1
2017-Dec-07 02:00N 48°45' W 122°45'5 9.9
2017-Dec-07 01:30N 48°40' W 122°42'510.5
2017-Dec-07 01:00N 48°35' W 122°45'510.6
2017-Dec-07 00:30N 48°30' W 122°44'5 9.4
2017-Dec-07 00:01N 48°26' W 122°47'612.0
2017-Dec-06 23:30N 48°22' W 122°53'714.5
2017-Dec-06 23:00N 48°18' W 123°03'714.5
2017-Dec-06 22:30N 48°14' W 123°12'713.9
2017-Dec-06 22:00N 48°10' W 123°20'5 9.8
2017-Dec-06 21:30N 48°11' W 123°27'612.8
2017-Dec-06 21:00N 48°13' W 123°36'416 8.2
2017-Dec-04 18:00N 41°30' W 126°00'226 9.8 340 / 301028.410.8 13.3 3.014.4
2017-Dec-03 19:00N 37°48' W 125°06'11711.2 360 / 191023.710.8 16.7 6.115.6
2017-Dec-03 08:27N 36°09' W 123°46'511.6
2017-Dec-03 08:00N 36°05' W 123°42'611.8
2017-Dec-03 07:31N 36°00' W 123°38'611.6
2017-Dec-03 07:00N 35°55' W 123°35'612.0
2017-Dec-03 06:30N 35°50' W 123°31'612.0
2017-Dec-03 06:00N 35°45' W 123°27'612.1
2017-Dec-03 05:30N 35°40' W 123°23'611.8
2017-Dec-03 05:00N 35°35' W 123°18'612.5
2017-Dec-03 04:30N 35°30' W 123°14'612.3
2017-Dec-03 04:00N 35°25' W 123°10'612.3
2017-Dec-03 03:30N 35°20' W 123°06'612.7
2017-Dec-03 03:00N 35°14' W 123°01'612.7
2017-Dec-03 02:30N 35°09' W 122°57'612.5
2017-Dec-03 02:00N 35°04' W 122°53'612.5
2017-Dec-03 01:30N 34°59' W 122°49'612.4
2017-Dec-03 01:00N 34°53' W 122°45'612.3
2017-Dec-03 00:30N 34°48' W 122°41'612.3
2017-Dec-03 00:00N 34°43' W 122°36'612.0
2017-Dec-02 23:30N 34°38' W 122°32'612.2
2017-Dec-02 23:00N 34°33' W 122°28'612.3
2017-Dec-02 22:30N 34°28' W 122°24'612.0
2017-Dec-02 22:00N 34°23' W 122°20'612.0
2017-Dec-02 21:30N 34°18' W 122°16'611.8
2017-Dec-02 21:00N 34°13' W 122°12'611.7
2017-Dec-02 20:27N 34°08' W 122°08'511.8
2017-Dec-02 20:00N 34°03' W 122°04'612.3
2017-Dec-02 19:30N 33°58' W 122°00'612.7
2017-Dec-02 19:00N 33°53' W 121°56'2143.9
2017-Dec-02 19:00N 33°54' W 121°54'714.1 340 / 191015.110.8 15.610.717.8
2017-Dec-02 18:30N 33°47' W 121°52'612.4
2017-Dec-02 18:01N 33°42' W 121°48'612.7
2017-Dec-02 17:30N 33°42' W 121°40'613.0
2017-Dec-02 17:00N 33°42' W 121°32'612.9
2017-Dec-02 16:30N 33°42' W 121°24'613.0
2017-Dec-02 16:00N 33°42' W 121°17'713.4
2017-Dec-02 15:30N 33°42' W 121°09'713.6
2017-Dec-02 15:00N 33°42' W 121°00'713.7
2017-Dec-02 14:30N 33°42' W 120°52'713.3
2017-Dec-02 14:00N 33°42' W 120°44'713.2
2017-Dec-02 13:30N 33°42' W 120°36'713.2
2017-Dec-02 13:00N 33°42' W 120°28'713.4
2017-Dec-02 12:30N 33°42' W 120°20'713.5
2017-Dec-02 12:00N 33°42' W 120°12'713.3
2017-Dec-02 11:30N 33°42' W 120°04'713.7
2017-Dec-02 11:00N 33°42' W 119°56'714.1
2017-Dec-02 10:30N 33°42' W 119°47'714.4
2017-Dec-02 10:00N 33°42' W 119°39'714.5
2017-Dec-02 09:30N 33°42' W 119°30'714.5
2017-Dec-02 09:00N 33°42' W 119°21'714.4
2017-Dec-02 08:30N 33°42' W 119°13'713.2
2017-Dec-02 08:00N 33°41' W 119°05'611.5
2017-Dec-02 07:29N 33°41' W 118°58'611.5
2017-Dec-02 06:59N 33°40' W 118°51'611.6
2017-Dec-02 06:30N 33°40' W 118°44'611.7
2017-Dec-02 06:00N 33°39' W 118°37'611.7
2017-Dec-02 05:30N 33°39' W 118°30'611.7
2017-Dec-02 05:00N 33°39' W 118°23'611.7
2017-Dec-02 04:30N 33°38' W 118°16'5 9.8
2017-Dec-02 04:00N 33°41' W 118°11'3 5.5
2017-Dec-02 03:30N 33°44' W 118°12'  
Track history (hours):
 
Tides and Currents Weather Stations Pressure Air Temp Water Temp Dewpoint Dewpoint Depression Visibility Wind Speed Wind Dir Waves Ship Positions

Alaskan Explorer

Owner: ALASKA TANKER COMPANY, LLC, Beaverton, OR. More information available from US FCC via Universal Licensing System and Coast Guard Vessel Documentation Center.

Last reported at 2017-Dec-10 21:00 UTC. Time now 2017-Dec-11 07:52 UTC.
Position N 55°24' W 142°12'.

Type: Tanker. MMSI: 303294000.

Wind from 140 at 52 knots

Barometer 992.9 mb
Air temperature 6.7 ° C
Visibility: greater than 2.2 NM
Dewpoint 4.4 ° C
Water temperature 8.9 ° C

Date/timePositionNaut miles runAvg speedWind from/ knotsBaromVisibWave heightAir tempDewpointWater temp
2017-Dec-10 21:00N 55°24' W 142°12'4113.8 140 / 52992.9 2.2 6.7 4.4 8.9
2017-Dec-10 18:00N 54°48' W 141°36'34214.3 140 / 37997.5 6.7 4.4 8.9
2017-Dec-09 18:00N 51°18' W 134°06'10613.2 180 / 241006.5 2.2 10.0 7.911.1
2017-Dec-09 10:00N 50°24' W 131°42'11114.9 140 / 371011.3 5.4 11.1 5.511.1
2017-Dec-09 02:31N 49°25' W 129°15'514.6
2017-Dec-09 02:12N 49°23' W 129°09'314.8
2017-Dec-09 02:00N 49°21' W 129°06'714.4
2017-Dec-09 01:30N 49°17' W 128°56'714.3
2017-Dec-09 01:00N 49°13' W 128°47'714.6
2017-Dec-09 00:31N 49°10' W 128°37'714.6
2017-Dec-09 00:00N 49°06' W 128°28'814.8
2017-Dec-08 23:29N 49°02' W 128°18'715.0
2017-Dec-08 23:00N 48°58' W 128°09'815.1
2017-Dec-08 22:30N 48°54' W 127°59'815.1
2017-Dec-08 22:00N 48°50' W 127°49'815.1
2017-Dec-08 21:30N 48°46' W 127°39'815.0
2017-Dec-08 21:00N 48°42' W 127°30'815.1
2017-Dec-08 20:30N 48°38' W 127°20'715.0
2017-Dec-08 20:00N 48°34' W 127°10'714.3
2017-Dec-08 19:30N 48°31' W 127°01'714.8
2017-Dec-08 19:00N 48°31' W 126°49'815.1
2017-Dec-08 18:30N 48°31' W 126°38'714.9
2017-Dec-08 18:00N 48°31' W 126°27'714.6
2017-Dec-08 17:31N 48°31' W 126°16'714.9
2017-Dec-08 17:00N 48°31' W 126°05'815.1
2017-Dec-08 16:30N 48°32' W 125°53'714.9
2017-Dec-08 16:00N 48°32' W 125°42'714.9
2017-Dec-08 15:30N 48°31' W 125°31'714.9
2017-Dec-08 15:00N 48°31' W 125°20'815.0
2017-Dec-08 14:30N 48°31' W 125°08'815.3
2017-Dec-08 14:00N 48°30' W 124°57'815.0
2017-Dec-08 13:30N 48°31' W 124°45'714.3
2017-Dec-08 13:00N 48°28' W 124°35'714.4
2017-Dec-08 12:30N 48°25' W 124°25'714.4
2017-Dec-08 12:00N 48°23' W 124°15'714.5
2017-Dec-08 11:30N 48°20' W 124°05'815.0
2017-Dec-08 11:00N 48°17' W 123°54'815.4
2017-Dec-08 10:30N 48°16' W 123°43'815.8
2017-Dec-08 10:00N 48°15' W 123°31'713.1
2017-Dec-08 09:30N 48°10' W 123°25'3 5.9
2017-Dec-08 09:00N 48°10' W 123°20'816.5
2017-Dec-08 08:30N 48°15' W 123°11'816.4
2017-Dec-08 08:00N 48°20' W 123°00'816.1
2017-Dec-08 07:30N 48°24' W 122°50'816.5
2017-Dec-08 07:00N 48°31' W 122°45'917.4
2017-Dec-08 06:30N 48°40' W 122°43'816.1
2017-Dec-08 06:00N 48°48' W 122°46'4 7.6
2017-Dec-08 05:30N 48°52' W 122°45'0 0.0
2017-Dec-08 05:00N 48°52' W 122°45'0 0.0
2017-Dec-08 04:30N 48°52' W 122°45'0 0.0
2017-Dec-07 03:36N 48°52' W 122°45'0 0.1
2017-Dec-07 03:30N 48°52' W 122°45'0 0.9
2017-Dec-07 03:00N 48°51' W 122°45'3 4.7
2017-Dec-07 02:26N 48°49' W 122°45'4 9.1
2017-Dec-07 02:00N 48°45' W 122°45'5 9.9
2017-Dec-07 01:30N 48°40' W 122°42'510.5
2017-Dec-07 01:00N 48°35' W 122°45'510.6
2017-Dec-07 00:30N 48°30' W 122°44'5 9.4
2017-Dec-07 00:01N 48°26' W 122°47'612.0
2017-Dec-06 23:30N 48°22' W 122°53'714.5
2017-Dec-06 23:00N 48°18' W 123°03'714.5
2017-Dec-06 22:30N 48°14' W 123°12'713.9
2017-Dec-06 22:00N 48°10' W 123°20'5 9.8
2017-Dec-06 21:30N 48°11' W 123°27'612.8
2017-Dec-06 21:00N 48°13' W 123°36'416 8.2
2017-Dec-04 18:00N 41°30' W 126°00'226 9.8 340 / 301028.410.8 13.3 3.014.4
2017-Dec-03 19:00N 37°48' W 125°06'11711.2 360 / 191023.710.8 16.7 6.115.6
2017-Dec-03 08:27N 36°09' W 123°46'511.6
2017-Dec-03 08:00N 36°05' W 123°42'611.8
2017-Dec-03 07:31N 36°00' W 123°38'611.6
2017-Dec-03 07:00N 35°55' W 123°35'612.0
2017-Dec-03 06:30N 35°50' W 123°31'612.0
2017-Dec-03 06:00N 35°45' W 123°27'612.1
2017-Dec-03 05:30N 35°40' W 123°23'611.8
2017-Dec-03 05:00N 35°35' W 123°18'612.5
2017-Dec-03 04:30N 35°30' W 123°14'612.3
2017-Dec-03 04:00N 35°25' W 123°10'612.3
2017-Dec-03 03:30N 35°20' W 123°06'612.7
2017-Dec-03 03:00N 35°14' W 123°01'612.7
2017-Dec-03 02:30N 35°09' W 122°57'612.5
2017-Dec-03 02:00N 35°04' W 122°53'612.5
2017-Dec-03 01:30N 34°59' W 122°49'612.4
2017-Dec-03 01:00N 34°53' W 122°45'612.3
2017-Dec-03 00:30N 34°48' W 122°41'612.3
2017-Dec-03 00:00N 34°43' W 122°36'612.0
2017-Dec-02 23:30N 34°38' W 122°32'612.2
2017-Dec-02 23:00N 34°33' W 122°28'612.3
2017-Dec-02 22:30N 34°28' W 122°24'612.0
2017-Dec-02 22:00N 34°23' W 122°20'612.0
2017-Dec-02 21:30N 34°18' W 122°16'611.8
2017-Dec-02 21:00N 34°13' W 122°12'611.7
2017-Dec-02 20:27N 34°08' W 122°08'511.8
2017-Dec-02 20:00N 34°03' W 122°04'612.3
2017-Dec-02 19:30N 33°58' W 122°00'612.7
2017-Dec-02 19:00N 33°53' W 121°56'2143.9
2017-Dec-02 19:00N 33°54' W 121°54'714.1 340 / 191015.110.8 15.610.717.8
2017-Dec-02 18:30N 33°47' W 121°52'612.4
2017-Dec-02 18:01N 33°42' W 121°48'612.7
2017-Dec-02 17:30N 33°42' W 121°40'613.0
2017-Dec-02 17:00N 33°42' W 121°32'612.9
2017-Dec-02 16:30N 33°42' W 121°24'613.0
2017-Dec-02 16:00N 33°42' W 121°17'713.4
2017-Dec-02 15:30N 33°42' W 121°09'713.6
2017-Dec-02 15:00N 33°42' W 121°00'713.7
2017-Dec-02 14:30N 33°42' W 120°52'713.3
2017-Dec-02 14:00N 33°42' W 120°44'713.2
2017-Dec-02 13:30N 33°42' W 120°36'713.2
2017-Dec-02 13:00N 33°42' W 120°28'713.4
2017-Dec-02 12:30N 33°42' W 120°20'713.5
2017-Dec-02 12:00N 33°42' W 120°12'713.3
2017-Dec-02 11:30N 33°42' W 120°04'713.7
2017-Dec-02 11:00N 33°42' W 119°56'714.1
2017-Dec-02 10:30N 33°42' W 119°47'714.4
2017-Dec-02 10:00N 33°42' W 119°39'714.5
2017-Dec-02 09:30N 33°42' W 119°30'714.5
2017-Dec-02 09:00N 33°42' W 119°21'714.4
2017-Dec-02 08:30N 33°42' W 119°13'713.2
2017-Dec-02 08:00N 33°41' W 119°05'611.5
2017-Dec-02 07:29N 33°41' W 118°58'611.5
2017-Dec-02 06:59N 33°40' W 118°51'611.6
2017-Dec-02 06:30N 33°40' W 118°44'611.7
2017-Dec-02 06:00N 33°39' W 118°37'611.7
2017-Dec-02 05:30N 33°39' W 118°30'611.7
2017-Dec-02 05:00N 33°39' W 118°23'611.7
2017-Dec-02 04:30N 33°38' W 118°16'5 9.8
2017-Dec-02 04:00N 33°41' W 118°11'3 5.5
2017-Dec-02 03:30N 33°44' W 118°12'  

Dump ship's entire track history